Skip Page Navigation
NASA JPL Caltech
NASA Logo - Jet Propulsion Laboratory + View the NASA Portal
+ Center for Near-Earth Object Studies
JPL Home Earth Solar System Stars & Galaxies Technology
JPL Solar System Dynamics
BODIES ORBITS EPHEMERIDES TOOLS PHYSICAL DATA DISCOVERY FAQ SITE MAP
JPL Small-Body Database Browser
Search: [ help ]  
359997 (2012 VJ107)
Classification: Main-belt Asteroid          SPK-ID: 2359997
Ephemeris | Orbit Diagram | Orbital Elements | Mission Design | Physical Parameters | Discovery Circumstances ]

[ hide orbit diagram ]

For accurate long-term ephemerides, please instead use our Horizons system.This orbit viewer was implemented using two-body methods, and hence should not be used for determining accurate long-term trajectories (over several years or decades) or planetary encounter circumstances.


Orbital Elements at Epoch 2459200.5 (2020-Dec-17.0) TDB
Reference: JPL 14 (heliocentric ecliptic J2000)
 Element Value Uncertainty (1-sigma)   Units 
e .06404917516880575 5.2606e-08  
a 2.849296687265737 3.4429e-08 au
q 2.666801584635156 1.484e-07 au
i 14.02328618591848 6.3088e-06 deg
node 107.0422862121852 2.2433e-05 deg
peri 302.7744312523633 5.1279e-05 deg
M 251.1918472787083 4.7799e-05 deg
tp 2459731.462528761325
(2022-May-31.96252876)
0.00023684 TDB
period 1756.729671201128
4.81
3.1841e-05
8.718e-08
d
yr
n .2049262364617871 3.7143e-09 deg/d
Q 3.031791789896319 3.6634e-08 au
  Orbit Determination Parameters
   # obs. used (total)      182  
   data-arc span      6497 days (17.79 yr)  
   first obs. used      2002-10-08  
   last obs. used      2020-07-22  
   planetary ephem.      DE441  
   SB-pert. ephem.      SB441-N16  
   condition code      0  
   norm. resid. RMS      .55194  
   source      ORB  
   producer      Otto Matic  
   solution date      2021-Apr-14 09:30:17  

Additional Information
 Earth MOID = 1.70615 au 
 Jupiter MOID = 2.22605 au 
 T_jup = 3.259 
[ show covariance matrix ]

Ephemeris | Orbit Diagram | Orbital Elements | Mission Design | Physical Parameters | Discovery Circumstances ]

Physical Parameter Table
Parameter Symbol Value Units Sigma Reference Notes
absolute magnitude H 16.05   n/a E2021B25  

359997 (2012 VJ107)          Discovered 2004-Jan-15 by Spacewatch at Kitt Peak
Reference: 20130327/Numbers.arcLast Updated: 2013-03-29

Alternate Designations
 2012 VJ107 = 2004 AW24 = 2011 OS54 
Ephemeris | Orbit Diagram | Orbital Elements | Mission Design | Physical Parameters | Discovery Circumstances ]
ABOUT SSD CREDITS/AWARDS PRIVACY/COPYRIGHT GLOSSARY LINKS
FirstGov 2021-May-17 13:36 UT
(server date/time)  
NASA Home Page
Site Manager:   Ryan S. Park
Webmaster  Alan B. Chamberlin